CW5102 Weather Reports


Display with metric or nautical units.
time (UTC)temp
F
wind
direction
speed
MPH
gust
MPH
rain 1hr
in
rain 24hr
in
rain mn
in
humidity
%
barometer
mb
20260905114703 67 100 0.0 0.0 0.00 0.00 0.00 100 1015.5
20260905114204 67 100 0.0 0.0 0.00 0.00 0.00 100 1015.4
20260905113704 67 100 0.0 0.0 0.00 0.00 0.00 100 1015.3
20260905113204 67 100 0.0 0.0 0.00 0.00 0.00 100 1015.2
20260905112703 67 100 0.0 0.0 0.00 0.00 0.00 100 1015.1
20260905111203 67 100 0.0 0.0 0.00 0.00 0.00 100 1015.0
20260905110704 67 100 0.0 0.0 0.00 0.00 0.00 100 1014.9
20260905110203 67 100 0.0 0.0 0.00 0.00 0.00 100 1015.0
20260905105704 67 100 0.0 0.0 0.00 0.00 0.00 100 1015.1
20260905105204 67 102 0.0 0.0 0.00 0.00 0.00 100 1015.0
20260905104204 67 102 0.0 0.0 0.00 0.00 0.00 100 1015.0
20260905103704 67 102 0.0 0.0 0.00 0.00 0.00 100 1015.0
20260905103204 67 102 0.0 0.0 0.00 0.00 0.00 100 1015.1
20260905102703 67 102 0.0 0.0 0.00 0.00 0.00 100 1014.8
20260905102203 67 102 0.0 0.0 0.00 0.00 0.00 100 1014.6
20260905101703 67 102 0.0 0.0 0.00 0.00 0.00 100 1014.7
20260905101203 67 102 0.0 0.0 0.00 0.00 0.00 100 1014.6
20260905100704 67 102 0.0 0.0 0.00 0.00 0.00 100 1014.8
20260905100204 67 102 0.0 0.0 0.00 0.00 0.00 100 1014.9
20260905095203 67 123 0.0 1.0 0.00 0.00 0.00 100 1014.3
20260905094704 67 123 0.0 1.0 0.00 0.00 0.00 100 1014.2
20260905094203 67 79 0.0 1.0 0.00 0.00 0.00 100 1014.1
20260905093203 67 96 0.0 3.0 0.00 0.00 0.00 100 1014.1
20260905092703 67 96 0.0 3.0 0.00 0.00 0.00 100 1014.0
20260905092204 67 96 0.0 3.0 0.00 0.00 0.00 100 1014.0
20260905091703 67 96 0.0 1.0 0.00 0.00 0.00 100 1014.1
20260905091204 67 96 0.0 3.0 0.00 0.00 0.00 100 1014.2
20260905090204 67 100 0.0 0.0 0.00 0.00 0.00 100 1014.3
20260905085704 67 84 0.0 0.0 0.00 0.00 0.00 100 1014.5
20260905085204 67 82 0.0 0.0 0.00 0.00 0.00 100 1014.6
20260905084703 67 78 0.0 0.0 0.00 0.00 0.00 100 1014.6
20260905084203 67 31 0.0 0.0 0.00 0.00 0.00 100 1014.6
20260905083704 67 31 0.0 0.0 0.00 0.00 0.00 100 1014.6
20260905082703 67 83 0.0 0.0 0.00 0.00 0.00 100 1014.6
20260905082203 67 56 0.0 0.0 0.00 0.00 0.00 100 1014.6
20260905081703 67 74 0.0 0.0 0.00 0.00 0.00 100 1014.7
20260905081203 67 74 0.0 0.0 0.00 0.00 0.00 100 1014.6
20260905080703 67 131 0.0 0.0 0.00 0.00 0.00 100 1014.6
20260905075704 67 102 0.0 0.0 0.00 0.00 0.00 100 1014.7
20260905075204 67 102 0.0 0.0 0.00 0.00 0.00 100 1014.8
20260905074703 67 102 0.0 0.0 0.00 0.00 0.00 100 1014.8
20260905074203 67 102 0.0 0.0 0.00 0.00 0.00 100 1014.8
20260905073704 67 102 0.0 0.0 0.00 0.00 0.00 100 1014.7
20260905073202 67 102 0.0 0.0 0.00 0.00 0.00 100 1014.8
20260905072202 67 124 0.0 0.0 0.00 0.00 0.00 100 1014.9
20260905071703 67 41 0.0 0.0 0.00 0.00 0.00 100 1014.9
20260905071202 67 107 0.0 0.0 0.00 0.00 0.00 100 1014.9
20260905070703 67 94 0.0 0.0 0.00 0.00 0.00 100 1015.0
20260905070202 67 142 0.0 0.0 0.00 0.00 0.00 100 1014.9
20260905065702 67 40 0.0 0.0 0.00 0.00 0.00 100 1014.8
20260905065202 67 97 0.0 0.0 0.00 0.00 0.00 100 1014.8
20260905064702 67 110 0.0 0.0 0.00 0.00 0.00 100 1014.9
20260905064202 67 104 0.0 0.0 0.00 0.00 0.00 100 1014.8
20260905063703 67 125 0.0 3.0 0.00 0.00 0.00 100 1014.8
20260905062702 67 84 0.0 3.0 0.00 0.00 0.00 100 1014.8
20260905062202 67 84 0.0 0.0 0.00 0.00 0.00 100 1014.8
20260905061702 67 84 0.0 0.0 0.00 0.00 0.00 100 1014.9
20260905061202 67 83 0.0 0.0 0.00 0.00 0.00 100 1014.8
20260905060203 67 83 0.0 0.0 0.00 0.00 0.00 100 1014.7
20260905055203 68 83 0.0 0.0 0.00 0.00 0.00 100 1014.7
20260905054702 68 83 0.0 0.0 0.00 0.00 0.00 100 1014.7
20260905054203 68 83 0.0 0.0 0.00 0.00 0.00 100 1014.7
20260905053703 68 83 0.0 0.0 0.00 0.00 0.00 100 1014.7
20260905053202 68 83 0.0 1.0 0.00 0.00 0.00 100 1014.6
20260905052703 68 83 0.0 1.0 0.00 0.00 0.00 100 1014.6
20260905052203 68 83 0.0 0.0 0.00 0.00 0.00 100 1014.5
20260905051202 69 83 0.0 0.0 0.00 0.00 0.00 100 1014.3
20260905050702 69 83 0.0 1.0 0.00 0.00 0.00 100 1014.2
20260905045702 69 84 0.0 2.0 0.00 0.00 0.00 99 1014.0
20260905045203 69 83 0.0 1.0 0.00 0.00 0.00 99 1014.1
20260905044702 69 83 0.0 0.0 0.00 0.00 0.00 99 1014.2
20260905044202 69 83 0.0 0.0 0.00 0.00 0.00 99 1014.2
20260905043702 69 81 0.0 3.0 0.00 0.00 0.00 99 1014.2
20260905042703 70 76 0.0 3.0 0.00 0.00 0.00 97 1014.2
20260905042203 70 28 0.0 3.0 0.00 0.00 0.00 97 1014.3
20260905041703 70 23 0.0 3.0 0.00 0.00 0.00 96 1014.4
20260905041202 70 91 0.0 3.0 0.00 0.00 0.00 96 1014.5
20260905040702 70 91 0.0 3.0 0.00 0.00 0.00 95 1014.4
20260905040203 71 66 0.0 6.0 0.00 0.00 0.00 95 1014.4
20260905035702 71 54 0.0 12.0 0.00 0.00 0.00 94 1014.3
20260905034703 71 145 1.0 5.0 0.00 0.00 0.00 94 1014.1
20260905034202 71 100 0.0 0.0 0.00 0.00 0.00 93 1014.3
20260905033203 72 119 0.0 5.0 0.00 0.00 0.00 92 1014.1
20260905032702 72 10 0.0 5.0 0.00 0.00 0.00 92 1014.1
20260905032202 72 93 0.0 0.0 0.00 0.00 0.00 91 1014.2
20260905031702 72 110 0.0 3.0 0.00 0.00 0.00 91 1014.2
20260905031203 72 112 0.0 3.0 0.00 0.00 0.00 91 1014.2
20260905030703 73 109 0.0 0.0 0.00 0.00 0.00 90 1014.2
20260905030203 73 109 0.0 1.0 0.00 0.00 0.00 90 1014.1
20260905025702 73 109 0.0 1.0 0.00 0.00 0.00 90 1014.1
20260905024702 73 83 0.0 0.0 0.00 0.00 0.00 89 1013.9
20260905024203 74 76 0.0 0.0 0.00 0.00 0.00 89 1013.8
20260905023703 74 12 0.0 0.0 0.00 0.00 0.00 88 1013.8
20260905023203 74 88 0.0 0.0 0.00 0.00 0.00 88 1013.8
20260905022702 74 89 0.0 5.0 0.00 0.00 0.00 88 1013.7
20260905021702 74 95 0.0 7.0 0.00 0.00 0.00 88 1013.5
20260905020703 75 115 0.0 2.0 0.00 0.00 0.00 89 1013.5
20260905020203 75 65 0.0 2.0 0.00 0.00 0.00 88 1013.5
20260905015703 75 45 0.0 0.0 0.00 0.00 0.00 88 1013.4
20260905014702 75 45 0.0 1.0 0.00 0.00 0.00 88 1013.2
20260905013703 76 44 0.0 0.0 0.00 0.00 0.00 85 1013.3
20260905012703 76 44 0.0 0.0 0.00 0.00 0.00 85 1013.2
20260905012204 76 44 0.0 0.0 0.00 0.00 0.00 84 1013.1
20260905011703 76 44 0.0 0.0 0.00 0.00 0.00 83 1013.0
20260905011202 76 44 0.0 0.0 0.00 0.00 0.00 83 1013.0
20260905010702 77 44 0.0 0.0 0.00 0.00 0.00 83 1013.0
20260905010202 77 44 0.0 0.0 0.00 0.00 0.00 82 1013.0
20260905005702 77 44 0.0 0.0 0.00 0.00 0.00 82 1012.9
20260905005202 77 44 0.0 0.0 0.00 0.00 0.00 82 1012.9
20260905004702 78 44 0.0 0.0 0.00 0.00 0.00 82 1012.8
20260905004203 78 44 0.0 0.0 0.00 0.00 0.00 82 1012.8
20260905003702 78 44 0.0 0.0 0.00 0.00 0.00 81 1012.8
20260905003202 78 44 0.0 0.0 0.00 0.00 0.00 81 1012.8
20260905002703 78 44 0.0 0.0 0.00 0.00 0.00 80 1012.8
20260905001703 79 44 0.0 0.0 0.00 0.00 0.00 79 1012.6
20260905001202 79 44 0.0 0.0 0.00 0.00 0.00 79 1012.6
20260905000703 79 44 0.0 0.0 0.00 0.00 0.00 79 1012.5
20260904235702 80 44 0.0 0.0 0.00 0.00 0.00 79 1012.6
20260904235202 80 44 0.0 0.0 0.00 0.00 0.00 78 1012.5
20260904234703 80 81 0.0 0.0 0.00 0.00 0.00 79 1012.6
20260904234203 80 81 0.0 0.0 0.00 0.00 0.00 78 1012.5
20260904233702 80 93 0.0 0.0 0.00 0.00 0.00 79 1012.5
20260904233202 80 97 0.0 0.0 0.00 0.00 0.00 79 1012.5
20260904232703 81 40 0.0 0.0 0.00 0.00 0.00 79 1012.4
20260904232203 81 40 0.0 0.0 0.00 0.00 0.00 79 1012.4
20260904231703 81 40 0.0 0.0 0.00 0.00 0.00 79 1012.4
20260904231203 81 39 0.0 0.0 0.00 0.00 0.00 79 1012.3
20260904230702 81 35 0.0 0.0 0.00 0.00 0.00 80 1012.3
20260904230203 81 36 0.0 0.0 0.00 0.00 0.00 79 1012.3
20260904225703 81 59 0.0 0.0 0.00 0.00 0.00 80 1012.3
20260904225202 81 50 0.0 0.0 0.00 0.00 0.00 82 1012.3
20260904224702 81 50 0.0 0.0 0.00 0.00 0.00 81 1012.2
20260904224203 81 119 0.0 0.0 0.00 0.00 0.00 82 1012.2
20260904223703 82 81 0.0 0.0 0.00 0.00 0.00 82 1012.2
20260904223203 82 81 0.0 0.0 0.00 0.00 0.00 82 1012.2
20260904222702 82 80 0.0 0.0 0.00 0.00 0.00 82 1012.1
20260904222203 82 123 0.0 0.0 0.00 0.00 0.00 83 1012.1
20260904221703 82 126 0.0 0.0 0.00 0.00 0.00 83 1012.1
20260904221202 82 75 0.0 0.0 0.00 0.00 0.00 83 1011.9
20260904220703 82 34 0.0 0.0 0.00 0.00 0.00 82 1011.9
20260904220203 82 101 0.0 0.0 0.00 0.00 0.00 83 1012.0
20260904215703 82 101 0.0 0.0 0.00 0.00 0.00 83 1011.9
20260904215203 82 101 0.0 0.0 0.00 0.00 0.00 83 1011.8
20260904214703 82 102 0.0 0.0 0.00 0.00 0.00 83 1011.8
20260904213702 83 30 0.0 0.0 0.00 0.00 0.00 84 1011.8
20260904213202 83 71 0.0 0.0 0.00 0.00 0.00 85 1011.9
20260904212703 83 68 0.0 0.0 0.00 0.00 0.00 85 1011.8
20260904211703 83 125 0.0 0.0 0.00 0.00 0.00 86 1011.9
20260904211203 83 36 0.0 0.0 0.00 0.00 0.00 87 1012.0
20260904210203 83 108 0.0 0.0 0.00 0.00 0.00 90 1012.0
20260904205703 83 36 0.0 0.0 0.00 0.00 0.00 91 1012.0
20260904205203 83 49 0.0 0.0 0.00 0.00 0.00 92 1012.0
20260904204202 83 19 0.0 0.0 0.00 0.00 0.00 95 1012.0
20260904202703 83 47 0.0 0.0 0.00 0.00 0.00 100 1011.9
20260904202202 83 49 0.0 0.0 0.00 0.00 0.00 100 1011.9
20260904201703 82 57 0.0 0.0 0.00 0.00 0.00 100 1011.9
20260904201204 82 85 0.0 0.0 0.00 0.00 0.00 100 1011.9
20260904200703 82 127 0.0 0.0 0.00 0.00 0.00 100 1011.9
20260904200203 82 20 0.0 0.0 0.00 0.00 0.00 100 1012.0
20260904195703 82 63 0.0 0.0 0.00 0.00 0.00 100 1012.0
20260904195203 81 90 0.0 0.0 0.00 0.00 0.00 100 1012.1
20260904194703 81 71 0.0 0.0 0.00 0.00 0.00 100 1012.2
20260904194203 81 47 0.0 0.0 0.00 0.00 0.00 100 1012.1
20260904193702 80 46 0.0 0.0 0.00 0.00 0.00 100 1012.0
20260904193203 80 38 0.0 0.0 0.00 0.00 0.00 100 1012.1
20260904192702 80 37 0.0 0.0 0.00 0.00 0.00 100 1012.1
20260904192203 80 31 0.0 0.0 0.00 0.00 0.00 100 1012.2
20260904191203 80 172 0.0 0.0 0.00 0.00 0.00 100 1012.3
20260904190702 80 71 0.0 0.0 0.00 0.00 0.00 100 1012.3
20260904190203 80 68 0.0 0.0 0.00 0.00 0.00 100 1012.2
20260904185703 80 28 0.0 0.0 0.00 0.01 0.00 100 1012.2
20260904185203 79 50 0.0 0.0 0.00 0.13 0.00 100 1012.1
20260904184704 79 47 0.0 0.0 0.00 0.26 0.00 100 1012.2
20260904184203 79 33 0.0 0.0 0.00 0.32 0.00 100 1012.2
20260904183703 79 18 0.0 0.0 0.00 0.37 0.00 100 1012.2
20260904183203 79 84 0.0 0.0 0.00 0.38 0.00 100 1012.2
20260904182703 79 47 0.0 0.0 0.00 0.38 0.00 100 1012.3
20260904182203 79 50 0.0 0.0 0.00 0.38 0.00 100 1012.1
20260904181204 78 43 0.0 0.0 0.00 0.38 0.00 100 1012.1
20260904180203 78 57 0.0 0.0 0.00 0.38 0.00 100 1012.1
20260904175703 78 59 0.0 0.0 0.00 0.38 0.00 100 1012.2
20260904175203 78 93 0.0 0.0 0.00 0.38 0.00 100 1012.1
20260904174703 77 52 0.0 0.0 0.00 0.38 0.00 100 1012.2
20260904174203 77 12 0.0 0.0 0.00 0.38 0.00 100 1012.3
20260904173703 77 34 0.0 0.0 0.00 0.38 0.00 100 1012.2
20260904173203 77 24 0.0 0.0 0.00 0.38 0.00 100 1012.1
20260904172703 77 93 0.0 0.0 0.00 0.38 0.00 100 1012.0
20260904171703 77 47 0.0 0.0 0.00 0.38 0.00 100 1012.0
20260904171203 77 108 0.0 0.0 0.00 0.38 0.00 100 1011.9
20260904170703 77 112 0.0 0.0 0.00 0.38 0.00 100 1011.9
20260904170204 77 42 0.0 0.0 0.00 0.38 0.00 100 1011.9
20260904165704 77 18 0.0 0.0 0.00 0.38 0.00 100 1011.9
20260904165203 77 31 0.0 0.0 0.00 0.38 0.00 100 1011.9
20260904164703 77 43 0.0 0.0 0.00 0.38 0.00 100 1011.8
20260904164203 77 19 0.0 0.0 0.00 0.38 0.00 100 1011.7
20260904163703 76 18 0.0 0.0 0.00 0.38 0.00 100 1011.7
20260904163203 76 57 0.0 0.0 0.00 0.38 0.00 100 1011.7
20260904162203 76 23 0.0 0.0 0.00 0.38 0.00 100 1011.5
20260904161703 76 22 0.0 0.0 0.00 0.38 0.00 100 1011.5
20260904161204 76 87 0.0 0.0 0.00 0.38 0.00 100 1011.5
20260904160703 76 54 0.0 0.0 0.00 0.38 0.00 100 1011.4
20260904160203 76 14 0.0 0.0 0.00 0.38 0.00 100 1011.3
20260904155703 76 43 0.0 0.0 0.00 0.38 0.00 100 1011.2
20260904155203 76 40 0.0 0.0 0.00 0.38 0.00 100 1011.2
20260904154704 76 39 0.0 0.0 0.00 0.38 0.00 100 1011.3
20260904154203 76 49 0.0 0.0 0.00 0.38 0.00 100 1011.3
20260904153703 76 52 0.0 0.0 0.00 0.38 0.00 100 1011.1
20260904153203 76 28 0.0 0.0 0.00 0.38 0.00 100 1011.0
20260904151703 76 38 0.0 0.0 0.00 0.38 0.00 100 1010.9
20260904151203 76 38 0.0 0.0 0.00 0.38 0.00 100 1010.8
20260904150704 76 68 0.0 0.0 0.00 0.38 0.00 100 1010.7
20260904150203 76 68 0.0 0.0 0.00 0.38 0.00 100 1010.7
20260904145703 75 68 0.0 0.0 0.00 0.38 0.00 100 1010.7
20260904145204 75 68 0.0 0.0 0.00 0.38 0.00 100 1010.6
20260904144703 75 68 0.0 0.0 0.00 0.38 0.00 100 1010.6
20260904144203 75 68 0.0 0.0 0.00 0.38 0.00 100 1010.5
20260904143703 75 68 0.0 0.0 0.00 0.38 0.00 100 1010.3
20260904143203 74 68 0.0 0.0 0.00 0.38 0.00 100 1010.3
20260904142704 74 68 0.0 0.0 0.00 0.38 0.00 100 1010.3
20260904142203 74 68 0.0 0.0 0.00 0.38 0.00 100 1010.3
20260904141703 74 68 0.0 0.0 0.00 0.38 0.00 100 1010.4
20260904140703 74 68 0.0 0.0 0.00 0.38 0.00 100 1010.4
20260904140203 74 68 0.0 0.0 0.00 0.38 0.00 100 1010.4
20260904135703 74 68 0.0 0.0 0.00 0.38 0.00 100 1010.4
20260904135203 73 68 0.0 0.0 0.00 0.38 0.00 100 1010.3
20260904134703 73 68 0.0 0.0 0.00 0.38 0.00 100 1010.4
20260904134203 73 68 0.0 0.0 0.00 0.38 0.00 100 1010.4
20260904133703 73 68 0.0 0.0 0.00 0.38 0.00 100 1010.4
20260904133203 73 68 0.0 0.0 0.00 0.38 0.00 100 1010.3
20260904132703 73 68 0.0 0.0 0.00 0.38 0.00 100 1010.3
20260904132203 73 68 0.0 0.0 0.00 0.38 0.00 100 1010.2
20260904131703 73 40 0.0 0.0 0.00 0.38 0.00 100 1010.2
20260904131203 73 40 0.0 0.0 0.00 0.38 0.00 100 1010.2
20260904130204 72 131 0.0 0.0 0.00 0.38 0.00 100 1010.1
20260904125703 72 198 0.0 0.0 0.00 0.38 0.00 100 1010.0
20260904125203 72 198 0.0 0.0 0.00 0.38 0.00 100 1010.1
20260904124703 72 205 0.0 0.0 0.00 0.38 0.00 100 1009.9
20260904124204 72 205 0.0 0.0 0.00 0.38 0.00 100 1009.9
20260904123703 72 205 0.0 0.0 0.00 0.38 0.00 100 1009.8
20260904123203 72 205 0.0 0.0 0.00 0.38 0.00 100 1009.8
20260904122704 71 205 0.0 0.0 0.00 0.38 0.00 100 1009.7
20260904122204 71 205 0.0 0.0 0.00 0.38 0.00 100 1009.6
20260904121703 71 205 0.0 0.0 0.00 0.38 0.00 100 1009.5
20260904121204 71 205 0.0 0.0 0.00 0.38 0.00 100 1009.5
20260904120704 72 205 0.0 0.0 0.00 0.38 0.00 100 1009.4
20260904120203 72 205 0.0 0.0 0.00 0.38 0.00 100 1009.6
20260904115704 72 205 0.0 0.0 0.00 0.38 0.00 100 1009.5
20260904115204 72 205 0.0 0.0 0.00 0.38 0.00 100 1009.6